Location: Staunton
(38.1490°N, 79.0720°W)
Time: 04:27:00
(UTC-04:00)

ISS - Pass Details

Date: 18 May 2019
Orbit: 407 x 410 km, 51.6° (Epoch: 21 May)

Event Time Altitude Azimuth Distance (km) Brightness Sun altitude
Rises 03:08:43 0° 319° (NW) 2,336 0.3 -26.2°
Reaches altitude 10° 03:11:33 10° 346° (NNW) 1,474 -0.5 -25.9°
Maximum altitude 03:13:27 14° 21° (NNE) 1,237 -0.5 -25.8°
Drops below altitude 10° 03:15:21 10° 56° (NE) 1,472 -0.1 -25.6°
Sets 03:18:09 0° 82° (E) 2,331 0.6 -25.3°
